| time (UTC) | temp F | wind direction | speed MPH | gust MPH | rain 1hr in | rain 24hr in | rain mn in | humidity % | barometer mb |
| 20260508111558 | 69 | 325 | 0.0 | 4.0 | 0.00 | 0.00 | 0.00 | 67 | 1011.9 |
| 20260508104557 | 69 | 62 | 2.0 | 7.0 | 0.00 | 0.00 | 0.00 | 70 | 1012.2 |
| 20260508103106 | 68 | 57 | 0.0 | 5.0 | 0.00 | 0.00 | 0.00 | 69 | 1012.4 |
| 20260508101551 | 67 | 69 | 2.0 | 4.0 | 0.00 | 0.00 | 0.00 | 69 | 1012.6 |
| 20260508100050 | 67 | 57 | 2.0 | 6.0 | 0.00 | 0.00 | 0.00 | 70 | 1012.8 |
| 20260508094608 | 66 | 39 | 2.0 | 5.0 | 0.00 | 0.00 | 0.00 | 70 | 1012.9 |
| 20260508093052 | 65 | 18 | 0.0 | 2.0 | 0.00 | 0.00 | 0.00 | 74 | 1012.9 |
| 20260508091545 | 62 | 332 | 0.0 | 1.0 | 0.00 | 0.00 | 0.00 | 76 | 1013.0 |
| 20260508090054 | 63 | 35 | 0.0 | 2.0 | 0.00 | 0.00 | 0.00 | 75 | 1012.8 |
| 20260508084556 | 64 | 60 | 1.0 | 4.0 | 0.00 | 0.00 | 0.00 | 75 | 1012.8 |
| 20260508083102 | 63 | 299 | 0.0 | 4.0 | 0.00 | 0.00 | 0.00 | 75 | 1012.8 |
| 20260508081559 | 62 | 56 | 0.0 | 4.0 | 0.00 | 0.00 | 0.00 | 76 | 1012.8 |
| 20260508080050 | 61 | 68 | 0.0 | 3.0 | 0.00 | 0.00 | 0.00 | 78 | 1012.9 |
| 20260508074559 | 60 | 239 | 0.0 | 1.0 | 0.00 | 0.00 | 0.00 | 80 | 1013.1 |
| 20260508073053 | 58 | 219 | 0.0 | 2.0 | 0.00 | 0.00 | 0.00 | 83 | 1013.1 |
| 20260508071545 | 56 | 223 | 0.0 | 2.0 | 0.00 | 0.00 | 0.00 | 85 | 1013.2 |
| 20260508070108 | 54 | 212 | 0.0 | 3.0 | 0.00 | 0.00 | 0.00 | 90 | 1013.1 |
| 20260508064549 | 52 | 134 | 0.0 | 0.0 | 0.00 | 0.00 | 0.00 | 94 | 1013.1 |
| 20260508063055 | 50 | 244 | 0.0 | 1.0 | 0.00 | 0.00 | 0.00 | 96 | 1013.0 |
| 20260508061601 | 49 | 93 | 0.0 | 0.0 | 0.00 | 0.00 | 0.00 | 96 | 1012.9 |
| 20260508060055 | 46 | 94 | 0.0 | 0.0 | 0.00 | 0.00 | 0.00 | 97 | 1012.9 |
| 20260508054600 | 45 | 94 | 0.0 | 0.0 | 0.00 | 0.00 | 0.00 | 96 | 1012.7 |
| 20260508053054 | 45 | 29 | 0.0 | 0.0 | 0.00 | 0.00 | 0.00 | 96 | 1012.5 |
| 20260508051553 | 45 | 29 | 0.0 | 0.0 | 0.00 | 0.00 | 0.00 | 96 | 1012.6 |
| 20260508050059 | 45 | 29 | 0.0 | 0.0 | 0.00 | 0.00 | 0.00 | 95 | 1012.5 |
| 20260508044603 | 45 | 28 | 0.0 | 0.0 | 0.00 | 0.00 | 0.00 | 95 | 1012.4 |
| 20260508043057 | 46 | 28 | 0.0 | 0.0 | 0.00 | 0.00 | 0.00 | 94 | 1012.3 |
| 20260508041547 | 47 | 29 | 0.0 | 0.0 | 0.00 | 0.00 | 0.00 | 93 | 1012.4 |
| 20260508040056 | 47 | 29 | 0.0 | 0.0 | 0.00 | 0.00 | 0.00 | 93 | 1012.3 |
| 20260508034557 | 48 | 28 | 0.0 | 0.0 | 0.00 | 0.00 | 0.00 | 93 | 1012.4 |
| 20260508033057 | 48 | 27 | 0.0 | 0.0 | 0.00 | 0.00 | 0.00 | 92 | 1012.5 |
| 20260508031545 | 49 | 27 | 0.0 | 0.0 | 0.00 | 0.00 | 0.00 | 92 | 1012.6 |
| 20260508030103 | 49 | 27 | 0.0 | 0.0 | 0.00 | 0.00 | 0.00 | 92 | 1012.6 |
| 20260508024553 | 49 | 39 | 0.0 | 0.0 | 0.00 | 0.01 | 0.00 | 92 | 1012.6 |
| 20260508023049 | 48 | 39 | 0.0 | 0.0 | 0.00 | 0.01 | 0.00 | 91 | 1012.5 |
| 20260508021604 | 48 | 39 | 0.0 | 0.0 | 0.00 | 0.01 | 0.00 | 91 | 1012.5 |
| 20260508020053 | 48 | 39 | 0.0 | 0.0 | 0.00 | 0.01 | 0.00 | 91 | 1012.6 |
| 20260508014548 | 48 | 39 | 0.0 | 0.0 | 0.00 | 0.01 | 0.00 | 91 | 1012.7 |
| 20260508013054 | 48 | 39 | 0.0 | 0.0 | 0.00 | 0.01 | 0.00 | 91 | 1012.7 |
| 20260508011609 | 48 | 39 | 0.0 | 0.0 | 0.00 | 0.01 | 0.00 | 90 | 1012.8 |
| 20260508010059 | 48 | 39 | 0.0 | 0.0 | 0.00 | 0.01 | 0.00 | 90 | 1012.9 |
| 20260508004558 | 48 | 39 | 0.0 | 1.0 | 0.00 | 0.01 | 0.00 | 90 | 1012.9 |
| 20260508003102 | 48 | 39 | 0.0 | 0.0 | 0.00 | 0.01 | 0.00 | 90 | 1013.0 |
| 20260508001555 | 48 | 37 | 0.0 | 1.0 | 0.00 | 0.01 | 0.00 | 90 | 1013.1 |
| 20260508000104 | 47 | 59 | 0.0 | 1.0 | 0.00 | 0.01 | 0.00 | 93 | 1013.1 |
| 20260507234558 | 46 | 72 | 0.0 | 0.0 | 0.00 | 0.01 | 0.00 | 92 | 1013.1 |
| 20260507233103 | 46 | 72 | 0.0 | 0.0 | 0.00 | 0.01 | 0.00 | 91 | 1013.2 |
| 20260507231609 | 47 | 72 | 0.0 | 0.0 | 0.00 | 0.01 | 0.00 | 91 | 1013.2 |
| 20260507230105 | 48 | 72 | 0.0 | 0.0 | 0.00 | 0.01 | 0.00 | 90 | 1013.3 |
| 20260507224555 | 49 | 72 | 0.0 | 0.0 | 0.00 | 0.01 | 0.00 | 89 | 1013.3 |
| 20260507223117 | 49 | 72 | 0.0 | 0.0 | 0.00 | 0.01 | 0.00 | 88 | 1013.3 |
| 20260507221554 | 49 | 72 | 0.0 | 0.0 | 0.00 | 0.01 | 0.00 | 88 | 1013.4 |
| 20260507220104 | 50 | 72 | 0.0 | 0.0 | 0.00 | 0.01 | 0.00 | 88 | 1013.5 |
| 20260507214545 | 49 | 72 | 0.0 | 0.0 | 0.00 | 0.01 | 0.01 | 89 | 1013.5 |
| 20260507213047 | 49 | 72 | 0.0 | 0.0 | 0.00 | 0.01 | 0.01 | 88 | 1013.4 |
| 20260507211558 | 50 | 72 | 0.0 | 1.0 | 0.00 | 0.01 | 0.01 | 87 | 1013.4 |
| 20260507210106 | 50 | 71 | 0.0 | 0.0 | 0.00 | 0.01 | 0.01 | 87 | 1013.3 |
| 20260507204551 | 50 | 71 | 0.0 | 0.0 | 0.00 | 0.02 | 0.01 | 85 | 1013.1 |
| 20260507203108 | 50 | 71 | 0.0 | 0.0 | 0.00 | 0.02 | 0.01 | 83 | 1012.9 |
| 20260507201558 | 52 | 71 | 0.0 | 0.0 | 0.00 | 0.02 | 0.01 | 82 | 1012.8 |
| 20260507200051 | 53 | 71 | 0.0 | 0.0 | 0.00 | 0.02 | 0.01 | 81 | 1012.7 |
| 20260507194550 | 53 | 71 | 0.0 | 0.0 | 0.00 | 0.02 | 0.01 | 80 | 1012.7 |
| 20260507193055 | 54 | 61 | 0.0 | 0.0 | 0.00 | 0.02 | 0.01 | 78 | 1012.5 |
| 20260507191603 | 55 | 61 | 0.0 | 0.0 | 0.00 | 0.02 | 0.01 | 76 | 1012.4 |
| 20260507184543 | 60 | 61 | 0.0 | 1.0 | 0.00 | 0.02 | 0.01 | 68 | 1012.3 |
| 20260507183107 | 61 | 63 | 0.0 | 3.0 | 0.00 | 0.02 | 0.01 | 66 | 1012.2 |
| 20260507181551 | 62 | 46 | 0.0 | 3.0 | 0.00 | 0.02 | 0.01 | 64 | 1012.1 |
| 20260507180052 | 62 | 44 | 0.0 | 4.0 | 0.00 | 0.02 | 0.01 | 65 | 1012.1 |
| 20260507174609 | 63 | 65 | 0.0 | 6.0 | 0.00 | 0.02 | 0.01 | 64 | 1012.1 |
| 20260507173108 | 63 | 44 | 1.0 | 7.0 | 0.00 | 0.02 | 0.01 | 62 | 1012.0 |
| 20260507171606 | 63 | 56 | 2.0 | 5.0 | 0.00 | 0.02 | 0.01 | 62 | 1012.1 |
| 20260507170100 | 62 | 55 | 1.0 | 5.0 | 0.00 | 0.02 | 0.01 | 66 | 1012.0 |
| 20260507164604 | 61 | 54 | 0.0 | 4.0 | 0.00 | 0.02 | 0.01 | 64 | 1012.2 |
| 20260507163105 | 62 | 40 | 2.0 | 6.0 | 0.00 | 0.02 | 0.01 | 64 | 1012.2 |
| 20260507161546 | 64 | 13 | 1.0 | 7.0 | 0.00 | 0.02 | 0.01 | 63 | 1012.3 |
| 20260507160052 | 64 | 335 | 0.0 | 4.0 | 0.00 | 0.02 | 0.01 | 64 | 1012.2 |
| 20260507154552 | 64 | 23 | 2.0 | 6.0 | 0.00 | 0.09 | 0.01 | 64 | 1012.3 |
| 20260507153100 | 63 | 359 | 3.0 | 7.0 | 0.00 | 0.09 | 0.01 | 65 | 1012.3 |
| 20260507151551 | 63 | 62 | 1.0 | 6.0 | 0.00 | 0.09 | 0.01 | 66 | 1012.5 |
| 20260507150104 | 62 | 59 | 1.0 | 4.0 | 0.00 | 0.09 | 0.01 | 66 | 1012.7 |
| 20260507144606 | 62 | 44 | 0.0 | 5.0 | 0.00 | 0.16 | 0.01 | 67 | 1012.9 |
| 20260507143107 | 62 | 44 | 2.0 | 6.0 | 0.00 | 0.16 | 0.01 | 65 | 1013.0 |
| 20260507141632 | 63 | 44 | 0.0 | 4.0 | 0.00 | 0.16 | 0.01 | 67 | 1013.0 |
| 20260507140046 | 63 | 26 | 1.0 | 5.0 | 0.00 | 0.16 | 0.01 | 66 | 1013.1 |
| 20260507134559 | 63 | 44 | 2.0 | 6.0 | 0.00 | 0.20 | 0.01 | 65 | 1013.2 |
| 20260507133053 | 62 | 32 | 1.0 | 5.0 | 0.00 | 0.20 | 0.01 | 65 | 1013.3 |
| 20260507131636 | 63 | 49 | 1.0 | 5.0 | 0.00 | 0.20 | 0.01 | 68 | 1013.3 |
| 20260507130104 | 62 | 65 | 1.0 | 6.0 | 0.00 | 0.20 | 0.01 | 67 | 1013.3 |
| 20260507124608 | 62 | 30 | 1.0 | 7.0 | 0.00 | 0.20 | 0.01 | 65 | 1013.3 |
| 20260507123106 | 63 | 72 | 2.0 | 7.0 | 0.00 | 0.20 | 0.01 | 68 | 1013.4 |
| 20260507121609 | 61 | 44 | 2.0 | 4.0 | 0.00 | 0.20 | 0.01 | 67 | 1013.6 |
| 20260507114600 | 61 | 137 | 0.0 | 4.0 | 0.00 | 0.20 | 0.01 | 67 | 1013.7 |
| 20260507113104 | 61 | 27 | 1.0 | 7.0 | 0.00 | 0.20 | 0.01 | 66 | 1013.7 |